GFSSE_prec_cthk_057.txt.gz
RH
74 63 54 49 45 48 51 49 49 54 52 54 56 52 49 47 47 48 42 38 39 39 38 39 42 46 45 46 51 55 61 56 55 57 57 58 54 57 63 71 59 50 46
65 56 44 42 40 43 47 45 49 52 54 56 55 55 51 51 57 56 59 44 36 40 46 50 47 47 47 48 48 53 63 69 56 57 57 58 59 59 63 65 46 45 45
60 48 39 38 37 38 42 44 51 53 55 57 56 56 56 61 64 65 73 65 61 65 60 53 58 61 51 52 50 61 70 69 63 71 80 63 67 63 56 47 46 49 46
57 43 37 35 35 34 40 41 50 56 59 64 63 55 59 60 63 74 71 82 71 61 64 63 62 59 59 61 59 49 58 62 68 76 72 74 71 60 52 48 49 53 46
55 49 37 37 35 36 42 49 60 61 62 66 65 58 52 63 62 61 60 58 51 47 51 57 61 66 62 53 55 47 50 60 68 80 75 76 66 56 53 56 55 49 46
57 47 30 32 33 38 42 45 54 63 64 62 63 56 51 52 53 54 50 46 45 50 53 53 69 58 49 43 48 45 47 61 68 71 84 79 57 47 48 52 44 43 44
56 42 31 38 36 36 42 47 50 57 59 58 51 49 49 44 41 39 46 47 50 55 57 66 59 40 39 36 36 44 53 65 70 77 78 63 53 53 50 50 46 45 42
51 44 33 37 31 34 38 45 53 56 50 46 48 47 36 34 34 38 48 54 55 54 67 60 48 42 45 45 42 45 54 64 73 69 65 55 54 50 49 54 42 42 51
54 43 38 43 36 36 41 44 51 50 47 50 42 32 31 33 36 46 55 53 52 56 67 60 51 44 43 40 41 46 54 61 61 69 64 56 53 50 50 48 48 55 59
56 42 42 45 40 39 46 46 50 48 50 45 31 31 39 46 51 49 59 55 53 57 64 55 48 46 44 41 38 43 48 57 59 63 58 51 52 49 47 46 48 55 51
52 47 46 50 43 42 48 50 49 49 49 32 31 45 53 56 57 49 53 59 56 52 55 62 55 53 52 47 45 48 54 61 62 56 43 46 49 45 44 45 46 48 47
51 52 48 48 46 47 55 50 51 51 46 47 39 53 67 69 55 48 40 46 53 55 48 48 56 66 67 62 58 55 56 53 60 52 37 36 38 48 44 43 42 44 47
52 50 51 47 45 51 47 50 52 47 59 44 36 58 61 64 66 48 44 52 38 59 50 55 66 70 69 66 67 60 56 56 60 52 41 41 39 46 41 45 39 39 42
48 46 47 49 45 56 46 50 55 74 57 43 46 53 63 66 73 73 61 42 58 47 39 61 87 61 68 86 56 63 64 61 58 49 31 33 35 38 40 42 39 37 38
48 45 46 43 45 50 47 59 55 52 51 52 46 51 66 66 70 63 58 75 62 66 46 58 45 51 51 61 67 70 56 55 57 57 38 34 33 37 43 41 34 33 33
47 44 43 42 42 47 56 55 50 51 55 51 53 51 52 60 72 63 50 61 49 62 56 45 50 52 62 55 60 67 74 59 59 61 49 37 34 33 34 35 37 38 38
44 42 42 40 42 46 58 49 54 55 53 58 56 51 51 55 49 59 53 61 54 65 45 42 37 40 46 51 58 64 56 61 62 67 70 68 62 56 52 47 43 41 42
44 41 45 46 46 48 49 55 63 55 57 66 57 55 56 62 60 59 69 59 57 54 64 59 45 47 46 43 52 60 62 53 57 60 63 63 58 59 53 46 46 47 46
44 41 46 48 47 48 51 59 57 57 65 64 63 62 57 67 68 64 60 68 59 60 60 54 48 51 43 42 46 49 49 46 57 52 47 48 43 50 47 45 38 37 35
43 37 41 49 46 47 55 60 61 61 70 65 66 64 62 74 64 64 68 56 59 52 52 55 48 47 41 51 51 45 51 46 47 48 42 44 34 37 40 30 37 36 31
43 36 37 44 45 44 51 58 63 64 65 70 64 66 53 70 63 61 70 53 57 64 74 45 41 38 43 55 47 41 40 36 43 45 45 46 36 42 35 39 45 42 36
42 37 34 39 41 42 48 53 60 60 58 60 60 51 50 53 54 60 69 60 53 54 51 47 55 57 46 44 44 48 46 47 48 54 41 41 41 47 44 39 35 31 35
40 37 31 30 34 37 44 47 54 54 58 53 55 52 50 50 51 58 60 65 57 57 57 48 41 43 52 42 43 49 49 61 50 44 39 46 38 48 43 37 36 35 34
39 40 34 26 29 32 36 41 45 48 48 51 53 54 50 49 52 54 55 54 54 68 53 48 51 49 60 46 42 48 50 51 55 54 43 39 37 36 39 44 42 38 35
43 41 35 30 27 28 28 36 39 41 46 47 51 55 49 44 49 56 52 55 53 50 50 62 52 42 45 51 47 49 47 46 48 48 52 38 36 38 39 40 43 45 40
44 45 40 33 28 26 26 27 35 36 43 46 47 53 44 48 45 44 48 57 55 53 48 52 49 38 47 48 50 48 49 51 50 44 41 38 41 39 42 45 45 44 46

GFSSE_prec_cthk_060.txt.gz
RH
60 51 48 49 55 65 58 57 52 53 55 47 46 45 42 43 45 40 36 34 35 36 36 39 43 41 45 48 51 56 58 55 57 59 56 55 59 65 68 64 46 44 43
56 48 45 46 49 51 55 54 52 53 60 55 51 51 49 53 53 60 43 36 39 45 48 45 47 47 45 47 49 57 64 58 54 57 58 58 63 65 62 49 46 47 43
52 44 44 44 48 45 47 52 51 54 53 52 53 51 56 60 61 69 68 60 65 59 51 55 53 52 55 56 54 60 65 71 68 78 71 59 66 54 47 46 48 44 39
44 39 37 38 39 41 46 50 52 54 57 57 52 55 59 58 64 66 68 73 62 59 60 61 60 62 59 58 58 62 69 68 70 76 69 66 65 51 48 52 47 43 40
39 37 34 33 35 39 42 50 54 56 61 60 55 53 55 58 59 61 57 51 48 47 51 55 62 60 59 52 52 51 60 71 81 72 76 65 56 54 57 60 44 44 46
43 35 33 34 35 41 50 56 62 64 64 61 56 50 52 54 54 51 47 46 48 49 49 56 58 52 50 44 49 49 62 75 88 81 83 64 51 54 50 43 44 40 46
43 30 31 33 37 40 44 50 58 58 57 53 48 47 47 44 39 45 47 47 51 54 58 57 39 39 36 42 49 55 62 65 72 81 64 50 53 52 45 47 40 42 50
40 32 34 39 40 43 44 46 53 53 50 45 48 38 33 35 38 46 50 52 55 61 54 44 42 41 40 38 44 55 66 69 67 64 51 50 57 48 48 42 43 53 52
42 33 35 32 33 39 44 49 50 45 43 43 33 30 34 33 49 51 49 52 56 63 54 46 42 39 40 42 48 54 55 58 71 67 51 50 54 50 47 46 50 53 48
42 36 38 37 37 40 42 46 46 43 43 32 29 36 49 45 54 54 48 51 57 58 46 43 40 37 35 36 45 53 55 62 64 63 52 49 50 46 45 43 49 44 44
48 40 38 41 37 46 43 45 43 45 34 27 41 50 65 47 45 53 53 48 50 56 53 49 47 50 47 46 49 56 62 70 65 52 41 45 44 44 43 43 44 45 43
47 46 42 41 37 45 48 45 44 43 29 36 59 56 58 50 44 40 47 53 51 45 50 56 62 68 71 79 57 51 53 63 56 46 32 39 43 44 40 39 40 42 42
47 45 51 44 39 52 47 44 46 44 39 34 53 57 68 56 49 46 58 39 67 46 52 57 72 80 77 82 58 54 57 54 53 45 36 35 40 39 39 37 36 36 38
50 53 43 39 44 48 43 47 51 55 45 31 52 55 56 68 69 89 49 58 67 40 61 72 61 84 81 72 64 69 66 63 54 45 30 33 36 36 38 37 35 33 34
43 51 43 37 45 46 42 48 63 60 45 40 41 56 74 68 75 67 63 79 61 63 58 49 55 52 67 69 55 57 60 60 59 50 33 31 33 38 40 34 35 35 34
41 50 42 35 57 68 58 58 55 46 58 48 40 50 87 54 55 54 59 61 70 63 51 45 47 56 69 60 66 67 63 53 60 50 47 36 35 34 34 35 36 37 39
43 42 40 36 38 40 52 55 48 41 52 45 49 45 49 62 58 50 69 61 49 76 49 46 37 47 48 54 61 64 59 59 62 68 63 61 56 52 50 46 44 41 40
45 38 37 39 38 43 47 45 43 47 52 47 50 48 48 61 63 78 59 68 60 52 58 46 39 53 54 42 49 67 61 54 55 58 55 55 49 48 49 42 39 38 39
44 37 36 42 40 42 48 44 58 54 58 63 54 46 51 64 60 62 69 61 54 66 52 51 40 41 44 52 50 44 47 49 51 44 38 42 34 35 35 36 36 37 32
41 37 35 45 43 42 44 47 55 50 58 54 55 59 58 64 58 61 58 48 55 69 47 49 49 44 51 52 56 48 41 45 45 40 39 37 31 34 30 28 31 34 32
41 36 35 45 40 41 46 50 50 53 66 63 63 85 59 60 58 64 58 49 59 66 57 44 43 42 55 52 51 38 47 37 43 41 43 40 37 38 35 33 34 32 32
41 34 31 40 39 38 44 51 57 55 58 79 55 54 50 53 55 55 55 46 54 62 42 42 51 44 41 45 44 53 53 42 51 51 41 43 43 43 40 34 30 29 30
38 33 28 34 39 37 38 48 54 61 54 54 56 50 46 46 44 54 55 53 51 52 45 41 55 51 39 39 43 49 52 54 49 44 42 40 41 46 41 37 35 31 31
35 34 29 29 33 36 36 41 48 52 55 44 47 49 40 43 44 48 50 55 56 58 49 40 39 49 54 40 41 48 53 52 47 45 44 39 34 37 40 40 40 38 39
37 32 30 26 29 31 32 37 38 44 45 54 45 50 46 45 42 47 43 47 54 53 51 45 40 48 52 51 45 43 47 46 48 51 45 40 40 37 39 39 43 41 40
39 37 32 28 23 26 28 31 35 35 40 45 44 54 51 44 40 46 51 47 47 45 49 49 40 35 41 47 53 42 45 47 47 46 49 42 41 41 43 43 42 41 40

GFSSE_prec_cthk_063.txt.gz
RH
50 46 50 58 61 62 60 55 54 51 44 46 43 42 46 44 43 32 33 35 35 34 38 38 38 42 47 48 47 54 50 54 56 56 55 58 63 64 54 42 43 41 34
44 46 51 57 60 58 56 52 58 55 52 50 48 49 52 54 56 45 41 42 48 46 44 46 46 45 45 49 50 53 59 54 55 59 56 61 58 51 45 44 42 34 41
41 44 49 56 55 57 53 54 56 53 51 52 50 53 55 58 64 69 62 60 57 54 53 50 54 53 53 54 56 62 72 73 77 70 58 59 50 45 45 43 40 37 42
39 42 45 47 48 49 50 48 48 50 52 51 52 56 54 58 62 63 61 64 60 58 58 57 60 55 63 60 54 66 75 77 75 68 58 55 47 49 52 38 38 41 46
39 39 40 40 42 45 48 49 51 55 51 48 50 49 53 54 57 53 49 47 46 44 52 59 60 57 53 58 57 67 76 76 79 69 62 52 51 53 46 43 43 45 49
32 33 32 33 38 42 52 52 54 57 58 50 47 48 51 51 49 47 46 48 50 45 49 52 50 48 44 52 53 66 79 77 75 75 52 50 52 44 44 39 43 49 51
30 28 31 33 39 46 52 58 58 56 51 46 44 44 41 40 47 48 47 50 51 54 46 36 38 38 45 50 54 61 69 73 71 56 46 49 51 44 44 39 51 52 46
29 28 32 35 39 43 49 54 51 50 43 42 38 32 34 43 45 52 49 52 54 45 38 39 38 38 43 49 56 64 65 62 58 50 48 53 52 46 44 50 51 45 47
27 26 34 35 39 40 44 49 46 41 38 31 30 32 41 51 49 49 48 57 54 43 39 38 39 40 45 51 60 64 64 65 57 48 49 50 48 44 44 46 44 46 52
28 27 32 31 35 40 45 44 40 36 30 28 40 46 53 54 50 51 53 55 45 41 38 34 34 41 51 55 60 64 69 61 57 49 46 44 42 41 41 46 43 44 47
29 25 30 32 34 37 41 42 38 33 27 38 56 49 47 53 54 48 50 52 51 46 44 41 42 46 51 55 60 60 67 58 51 48 40 41 42 39 39 42 44 41 43
36 27 30 31 35 38 40 39 37 30 37 51 55 47 47 40 47 52 49 45 49 54 53 56 65 63 66 53 56 62 55 51 50 40 33 36 42 37 36 36 38 39 40
39 32 34 31 35 39 40 40 37 29 38 54 64 66 46 38 48 45 46 58 49 54 66 69 82 73 71 54 59 62 53 58 51 40 34 37 35 35 34 32 33 34 37
43 38 38 34 35 43 40 41 43 40 29 54 59 62 71 62 76 52 51 59 42 68 70 70 84 78 77 72 71 65 62 58 52 39 30 34 34 35 36 35 34 34 31
46 44 42 32 37 42 38 41 63 40 32 47 50 54 72 72 66 69 71 62 60 62 49 52 57 67 65 61 63 67 61 59 53 39 30 31 32 35 35 33 34 35 34
47 45 39 33 39 39 39 44 53 43 43 51 45 68 67 57 58 63 58 83 65 53 56 41 49 59 60 63 64 67 60 55 53 48 44 41 38 36 36 36 36 37 36
40 43 39 35 59 42 52 43 48 48 49 48 45 43 57 67 50 63 54 51 63 55 53 40 42 54 50 63 70 57 56 57 61 61 57 55 52 51 48 42 43 38 37
41 40 36 35 44 40 48 64 41 52 48 48 47 44 47 58 65 58 64 58 54 49 45 44 57 51 44 50 56 62 57 54 51 48 45 39 38 40 42 39 37 34 34
39 36 33 33 32 40 47 40 38 43 47 46 46 47 50 54 62 64 75 57 52 49 48 46 52 54 47 46 45 50 42 49 42 38 36 36 30 31 31 31 33 32 26
38 36 32 31 32 40 41 42 41 50 53 52 43 49 56 55 56 60 58 54 64 53 48 42 40 46 47 54 47 43 37 37 39 36 37 34 34 35 34 29 30 31 27
38 36 34 31 36 39 38 46 50 51 50 51 50 57 65 52 55 57 48 49 63 58 40 47 43 45 51 53 40 44 42 44 44 38 39 38 39 37 35 32 29 27 25
37 37 33 32 35 35 37 43 46 46 50 55 57 62 50 55 54 56 46 47 58 60 42 46 43 47 43 49 40 44 43 43 46 43 39 35 37 36 33 32 32 27 25
36 35 31 30 34 34 36 46 46 46 52 57 51 53 45 43 44 48 46 45 48 45 38 43 45 42 37 40 42 50 46 44 45 42 41 39 39 33 35 35 35 33 34
35 35 30 27 35 33 32 44 47 50 47 51 53 44 44 39 40 47 49 52 51 45 41 38 41 42 40 40 40 48 46 45 43 35 39 44 42 37 40 38 39 41 39
34 34 31 26 28 34 31 34 44 48 48 41 39 46 46 41 40 39 47 53 48 50 47 43 41 50 44 40 40 44 45 43 47 40 42 41 42 39 40 39 38 38 39
41 36 33 27 23 27 30 29 36 42 44 44 40 46 49 46 42 37 40 44 43 49 49 43 38 42 44 43 45 45 45 46 40 43 43 40 43 42 43 42 41 38 37

GFSSE_prec_cthk_069.txt.gz
RH
57 63 62 63 61 59 53 50 48 39 33 36 40 39 36 34 35 34 34 36 36 39 46 42 42 45 50 53 54 54 53 55 56 59 57 46 43 48 43 40 37 38 42
55 62 63 63 63 59 54 48 44 42 40 42 47 49 38 34 32 35 36 37 41 41 43 43 45 51 48 50 58 55 53 62 66 57 54 48 47 41 36 44 40 37 40
55 61 62 63 63 58 54 50 48 50 47 49 54 57 60 60 57 53 51 48 46 52 50 53 54 56 51 54 59 68 68 66 60 55 51 53 49 44 42 43 41 43 37
52 57 59 60 57 55 56 51 50 52 55 56 55 59 66 65 59 64 64 61 56 59 62 58 59 60 54 61 75 79 73 63 59 52 50 51 45 36 41 41 42 50 54
51 55 57 56 55 53 54 55 53 53 52 51 54 55 60 63 52 52 53 52 56 62 62 63 62 56 63 74 76 79 75 67 55 50 51 43 40 42 46 51 41 42 47
48 52 52 54 54 54 55 56 54 55 52 50 57 58 57 53 48 48 45 46 52 52 62 57 57 56 68 76 77 78 77 61 50 53 50 47 44 48 52 51 42 43 43
44 46 48 51 53 54 57 59 56 55 49 50 51 52 50 50 51 48 54 45 47 47 43 46 54 67 73 78 74 73 60 52 52 53 47 46 46 51 46 46 45 48 44
40 40 44 47 51 52 53 57 53 49 46 46 47 50 53 47 51 54 47 40 39 37 41 44 54 64 69 76 74 63 57 52 52 50 48 44 42 43 49 47 55 53 48
37 36 40 43 52 64 58 53 45 45 38 41 51 53 49 46 53 47 43 43 38 35 41 48 55 57 59 65 66 59 53 49 48 46 43 39 42 44 43 53 56 54 48
32 32 37 43 48 53 51 43 41 33 38 47 51 51 49 53 49 40 37 36 37 36 39 50 54 59 64 64 65 65 51 45 43 42 39 38 42 41 42 52 53 51 48
33 32 35 40 46 48 44 37 34 35 47 51 48 51 53 57 45 39 37 34 36 37 41 50 52 57 59 59 58 51 48 43 40 39 37 34 38 41 42 46 49 47 46
29 33 35 37 43 45 39 34 34 53 46 42 46 46 48 49 47 48 44 38 38 43 48 57 53 55 60 58 55 46 44 41 39 36 37 33 34 36 37 36 38 39 38
27 32 32 38 43 43 36 32 39 51 44 42 37 43 41 42 44 44 46 49 58 65 73 64 55 50 55 50 49 46 46 42 34 34 35 34 35 33 32 32 33 35 35
25 29 32 37 41 39 34 31 39 56 65 41 38 55 56 46 44 45 53 60 65 71 69 63 57 58 61 57 52 46 46 39 32 31 34 35 36 35 34 33 32 30 30
33 27 32 35 39 39 37 36 38 51 59 60 63 60 56 56 52 42 51 60 57 63 64 64 59 63 57 56 54 50 46 43 37 31 31 34 34 33 35 35 35 33 32
37 31 31 34 39 38 46 38 30 43 53 57 72 71 69 69 58 62 64 55 55 45 48 54 56 57 58 58 55 53 49 50 49 48 43 42 43 41 39 37 35 33 30
40 32 32 32 37 42 52 53 38 38 51 53 69 64 57 63 58 58 55 53 46 45 43 47 50 55 63 60 56 54 54 54 51 50 49 47 48 45 38 36 34 31 27
42 41 37 35 35 46 50 53 48 38 46 46 54 66 60 56 64 58 54 56 53 46 43 40 42 52 60 57 55 51 49 46 43 41 40 37 35 35 35 32 29 23 25
46 40 37 39 37 40 46 49 48 43 47 44 48 57 59 68 65 70 64 53 48 44 42 40 41 44 50 49 49 48 44 44 39 36 35 35 34 31 30 29 26 28 31
42 40 38 52 44 47 53 50 48 48 47 45 51 58 58 58 59 69 68 56 49 45 45 44 42 43 47 44 43 44 41 40 38 36 37 36 36 34 30 26 30 34 36
46 42 40 39 46 50 58 55 45 53 50 49 54 62 62 60 61 51 56 56 48 41 40 41 41 42 43 40 39 37 38 39 37 36 38 38 36 34 32 33 35 35 37
47 42 38 40 39 39 42 45 41 47 54 52 60 69 62 57 58 50 54 61 55 50 44 37 41 42 42 40 41 41 37 36 36 36 36 34 32 30 31 35 39 38 38
46 44 43 40 38 37 39 44 44 47 56 53 65 65 58 59 53 51 52 58 54 48 46 42 39 44 40 41 46 46 41 39 37 36 34 32 32 32 31 35 37 40 41
44 46 43 44 41 38 34 41 45 47 53 55 57 59 52 51 49 55 50 49 48 44 41 44 42 41 42 41 41 47 43 39 40 36 34 33 31 30 33 36 37 40 44
48 45 42 43 42 39 35 37 42 47 50 57 57 55 47 46 47 49 54 47 45 43 39 42 44 44 39 40 42 45 39 36 40 38 37 35 32 34 37 38 40 40 41
46 48 41 40 40 38 34 35 37 42 49 56 58 54 48 43 44 47 55 51 50 47 44 37 41 42 42 40 42 42 38 38 41 41 39 39 39 40 40 41 40 37 39

GFSSE_prec_cthk_072.txt.gz
RH
59 61 63 62 58 56 52 48 44 38 34 35 36 37 37 39 41 41 40 39 40 45 43 47 48 51 52 53 53 53 55 57 63 49 43 46 44 45 38 37 43 34 38
58 59 60 60 60 53 49 45 38 37 41 43 44 38 33 33 34 34 35 40 38 42 43 46 47 46 49 55 55 53 63 64 61 50 46 45 36 40 45 38 40 48 40
57 58 60 60 58 51 45 41 44 45 47 52 55 52 50 45 46 48 45 47 47 47 50 56 57 56 53 59 66 70 70 63 54 50 49 44 42 46 39 44 38 34 34
56 58 61 60 55 50 47 47 50 53 55 56 58 64 66 59 59 65 57 50 56 58 60 57 61 54 56 70 81 77 64 57 48 49 46 39 41 53 40 54 59 55 37
56 59 60 56 53 51 50 51 53 54 52 53 56 60 64 58 58 70 57 55 66 69 63 63 58 58 68 84 81 77 67 51 50 49 41 40 44 52 46 41 41 47 42
52 56 57 53 52 54 54 54 54 52 50 55 60 60 59 53 52 47 44 50 59 68 62 63 57 72 77 77 83 79 57 50 53 49 47 48 53 52 49 40 41 43 51
50 54 55 54 53 54 57 55 56 53 51 56 57 58 56 52 51 51 49 50 56 60 56 63 65 77 73 74 76 60 52 53 52 47 47 49 52 50 43 45 47 42 42
46 50 52 52 52 55 55 57 54 50 54 54 52 51 47 48 51 51 44 41 39 40 48 63 70 76 76 71 63 56 52 50 47 46 44 41 49 52 47 56 50 47 53
42 45 48 49 52 54 56 58 48 47 48 50 48 47 44 52 50 42 46 40 41 45 51 60 66 72 71 69 60 51 47 46 44 43 42 43 45 47 54 55 50 46 44
40 41 42 54 61 59 54 48 42 42 48 51 48 47 52 55 46 48 45 39 40 46 49 55 58 61 63 65 61 50 44 42 42 40 40 40 42 52 54 52 49 45 42
34 36 41 46 51 48 43 43 36 44 48 51 55 56 51 43 39 38 42 39 38 45 52 55 60 60 60 58 52 46 41 41 40 37 37 38 42 49 51 47 45 42 36
31 34 38 43 45 45 39 36 40 43 42 46 49 52 51 47 44 38 40 40 43 48 53 54 57 57 57 57 53 45 40 39 38 37 34 34 37 38 38 38 37 36 34
30 32 35 40 43 41 35 34 49 41 38 39 42 42 44 45 47 44 42 47 60 66 60 53 56 58 53 50 47 45 39 38 35 35 34 34 32 33 32 31 31 32 31
29 32 33 38 42 36 32 37 51 47 38 42 52 48 43 48 47 52 58 64 70 66 63 52 53 57 53 51 47 44 43 38 34 35 35 35 35 35 34 33 32 31 29
27 30 32 37 39 34 33 35 54 63 48 57 54 54 47 43 41 56 59 66 70 70 67 61 62 60 58 55 52 49 47 42 35 34 34 34 35 35 34 35 34 31 29
31 29 30 35 36 34 33 35 41 57 58 71 72 69 67 60 59 60 62 59 51 53 62 63 63 63 60 57 54 49 50 49 47 44 42 43 41 40 37 34 33 31 27
36 34 30 32 35 39 39 33 36 52 55 61 76 64 71 63 58 58 57 52 47 50 49 55 63 65 65 57 54 53 53 52 50 48 46 45 43 37 35 32 28 25 27
35 34 31 31 36 43 45 48 40 45 51 55 66 62 59 64 66 59 55 55 51 47 44 47 54 63 62 57 55 52 49 47 44 41 38 37 35 34 32 28 23 28 33
32 35 32 29 34 41 46 48 42 38 45 48 54 64 69 70 67 67 57 52 48 47 44 41 50 57 62 56 53 49 46 44 40 39 37 36 34 30 26 28 33 38 40
44 41 37 33 35 39 43 45 46 41 46 46 52 62 61 62 64 72 63 57 51 45 45 43 44 48 50 49 48 44 42 39 36 37 36 37 35 32 29 33 39 40 41
47 43 39 39 38 39 45 46 45 39 44 46 55 61 64 66 60 61 63 58 51 45 47 46 43 44 46 40 40 36 37 35 35 37 37 37 35 32 37 41 41 40 40
45 44 45 47 48 49 52 52 50 46 48 52 64 68 65 65 71 51 55 57 55 46 42 43 43 43 40 39 40 40 37 35 35 36 34 34 31 33 38 40 41 43 42
44 43 42 43 43 40 40 40 44 45 49 54 65 67 65 60 61 56 59 61 54 48 44 39 43 45 42 41 44 44 44 42 39 36 33 30 29 32 36 37 39 41 45
42 41 43 45 46 41 38 35 39 37 42 54 57 64 58 54 55 59 57 56 53 49 43 43 41 45 43 44 44 45 45 44 43 38 33 31 29 31 34 36 40 43 43
41 37 40 44 44 45 40 35 36 41 44 52 55 56 51 49 55 62 55 51 48 51 44 43 43 42 44 43 42 45 43 42 44 41 38 33 31 34 36 40 41 41 41
46 43 40 42 43 44 40 38 36 37 46 49 52 51 50 48 48 51 54 52 48 49 47 41 42 43 43 44 41 44 40 42 44 42 39 35 39 40 41 42 39 40 44

GFSSE_prec_cthk_075.txt.gz
RH
64 64 62 56 54 50 47 43 39 36 34 33 35 40 46 49 49 47 45 44 47 47 47 48 52 56 56 54 54 58 66 61 48 48 54 53 39 38 48 33 42 50 51
60 60 59 59 53 48 44 38 34 35 38 39 39 37 36 37 38 37 36 37 39 41 44 43 45 48 55 56 56 65 66 62 49 54 38 38 56 38 41 52 38 49 47
59 60 58 57 49 43 41 38 40 45 51 54 47 45 40 43 43 41 43 48 42 46 53 56 56 55 60 65 72 73 67 56 51 46 44 51 52 41 40 35 34 34 33
58 58 57 53 46 42 42 48 52 54 57 60 64 70 60 56 62 57 51 53 58 58 58 62 58 55 72 78 75 68 56 50 50 41 42 52 48 47 60 59 46 38 45
57 56 57 53 46 46 49 53 55 54 54 64 72 79 71 61 74 67 58 63 67 63 64 59 57 67 86 81 76 65 51 51 47 42 42 48 56 41 41 45 43 46 42
57 55 53 50 48 50 52 53 52 52 55 59 64 68 59 58 54 52 48 60 68 64 61 59 71 81 86 83 78 56 50 52 49 47 48 53 56 46 42 42 49 44 42
54 54 51 50 51 53 53 52 53 54 56 60 65 61 52 51 49 48 54 56 60 65 65 64 74 82 84 77 59 52 53 51 47 48 51 56 58 43 47 45 42 44 48
53 52 51 51 51 52 52 52 55 54 54 54 51 47 51 48 53 46 45 47 53 55 64 70 76 78 77 70 56 51 50 46 44 44 46 54 51 47 54 48 46 50 49
50 49 49 49 52 53 54 52 52 51 47 46 48 44 43 52 48 44 44 41 46 55 66 75 83 76 70 62 50 47 45 44 42 47 49 48 51 54 54 48 47 45 42
45 46 48 49 51 54 50 47 47 47 44 48 45 45 52 46 48 45 43 46 49 55 62 65 69 68 71 63 46 42 41 41 42 42 42 51 54 53 50 48 46 40 36
40 42 46 51 52 50 44 41 43 51 50 50 46 47 42 43 44 44 42 44 48 54 59 61 60 61 61 60 45 38 39 39 39 42 43 49 53 51 46 44 38 35 32
37 38 42 45 48 44 42 39 46 45 49 51 51 47 41 37 40 45 46 45 51 55 59 59 59 57 59 52 53 38 39 37 35 35 38 41 40 42 37 35 34 32 30
32 35 38 41 43 41 36 40 39 40 45 43 45 43 45 42 40 43 45 52 53 56 54 58 58 55 53 49 45 41 37 35 35 37 33 32 33 32 30 30 31 30 29
30 33 36 40 40 36 32 44 37 38 38 42 37 45 46 46 48 55 62 69 63 57 51 52 54 52 52 49 48 47 39 34 36 40 38 36 36 34 33 32 30 28 26
30 31 33 39 37 32 36 47 46 37 45 47 48 44 41 43 53 58 65 69 70 66 57 59 59 55 54 51 48 46 44 38 35 36 40 38 37 36 35 32 30 28 25
29 30 32 36 35 31 35 46 56 50 59 60 56 56 53 48 58 63 57 61 60 62 62 61 59 59 56 52 50 48 46 45 43 43 45 45 41 38 36 33 31 26 33
28 29 30 34 34 31 34 39 46 56 63 70 69 64 58 53 54 55 54 53 46 52 60 64 63 63 57 54 52 52 49 48 47 46 45 43 39 35 33 29 23 31 36
34 31 30 33 34 34 35 33 39 50 55 65 67 59 62 66 56 52 58 52 47 45 46 55 63 64 57 55 53 51 48 46 41 39 37 36 34 32 27 24 30 36 42
34 33 28 31 36 39 41 44 41 45 48 57 63 63 63 70 64 58 53 50 47 46 44 45 56 62 60 54 52 49 45 41 37 36 37 36 31 26 28 35 41 43 45
31 32 29 29 36 40 41 42 39 36 43 49 56 62 66 64 67 68 54 49 48 47 44 45 51 56 55 51 48 43 40 36 33 34 38 34 30 31 37 42 43 44 43
36 38 34 30 32 37 39 38 41 39 40 44 56 61 62 62 60 70 62 56 53 45 45 43 45 49 46 43 39 37 35 30 31 32 33 32 31 38 44 44 43 42 41
39 37 36 36 35 36 42 43 46 40 41 45 60 64 63 65 60 54 57 56 55 44 45 46 45 44 39 37 41 40 38 35 34 32 30 29 33 38 42 42 43 44 44
43 42 41 44 42 46 49 50 50 47 44 51 63 63 63 62 59 55 58 59 52 44 43 41 43 45 41 42 41 43 42 43 39 35 31 28 32 37 40 43 43 46 47
43 45 48 46 46 49 46 42 42 46 43 53 60 62 62 56 56 59 55 55 52 48 45 41 43 44 44 44 41 43 43 41 41 39 33 31 32 36 39 43 46 47 45
42 43 44 45 44 43 40 39 39 40 44 52 56 59 56 53 55 57 60 55 49 46 45 44 42 44 44 42 41 41 42 41 41 40 37 34 32 36 40 44 44 44 45
45 44 44 44 43 43 42 39 38 39 45 48 54 54 56 52 51 52 53 52 47 47 45 43 43 44 43 43 41 39 39 42 45 44 40 38 38 41 45 44 44 44 44